Location: Cahoon Acres
(40.8736°N, 111.8994°W)
Time: 12:11:20
(UTC+00:00)

SR - Pass Details

Date: 10 June 2020
Orbit: 583 x 872 km, 66.7° (Epoch: 14 July)

Event Time Altitude Azimuth Distance (km) Brightness Sun altitude
Rises 18:33:58 0° 171° (S) 3,296 ? 69.0°
Reaches altitude 10° 18:37:00 10° 155° (SSE) 2,319 ? 69.3°
Maximum altitude 18:40:50 21° 109° (ESE) 1,651 ? 69.7°
Drops below altitude 10° 18:44:28 10° 62° (ENE) 2,189 ? 70.1°
Sets 18:47:14 0° 46° (NE) 3,057 ? 70.3°
